EUS7LM ENBR-EKVG

Flight info

Callsign EUS7LM
Flight time N/A
Altitude 38000
Route REKLI DCT VALDI/M077F380 DCT ROBUR
Aircraft B738/M-SDE2E3FGHIRWXY/LB1

Departure

Time N/A
Airport Bergen Airport, Flesland (ENBR)

Arrival

Time 2026-05-08 23:09
Airport Vágar Airport (EKVG)
Time Latitude Longitude Altitude Speed Heading
2026-05-08 23:06 61.99596 -7.02886 2518 ft 154 kts 292°
2026-05-08 23:06 62.00055 -7.04890 2409 ft 156 kts 291°
2026-05-08 23:06 62.00517 -7.07059 2446 ft 161 kts 289°
2026-05-08 23:07 62.00941 -7.09236 2551 ft 159 kts 287°
2026-05-08 23:07 62.01436 -7.11379 2341 ft 168 kts 309°
2026-05-08 23:07 62.02440 -7.12759 1942 ft 169 kts 327°
2026-05-08 23:07 62.03181 -7.14452 1708 ft 154 kts 296°
2026-05-08 23:08 62.03625 -7.16610 1483 ft 163 kts 289°
2026-05-08 23:08 62.04067 -7.18748 1183 ft 149 kts 298°
2026-05-08 23:08 62.04565 -7.20469 1174 ft 123 kts 303°
2026-05-08 23:08 62.04960 -7.21939 753 ft 116 kts 291°
2026-05-08 23:09 62.05312 -7.23524 525 ft 115 kts 301°
2026-05-08 23:09 62.05549 -7.24453 428 ft 105 kts 298°
2026-05-08 23:09 62.05890 -7.25840 240 ft 0 kts 300°
2026-05-08 23:09 61.97636 -6.95569 3931 ft 154 kts 300°
2026-05-08 23:10 61.97717 -6.95820 3931 ft 157 kts 300°
2026-05-08 23:10 61.97865 -6.96279 3803 ft 159 kts 300°
2026-05-08 23:11 61.98364 -6.97899 2945 ft 196 kts 300°
2026-05-08 23:11 61.99297 -7.00059 2789 ft 187 kts 315°
2026-05-08 23:11 62.00192 -7.01889 2719 ft 171 kts 311°
2026-05-08 23:12 62.00912 -7.03685 2770 ft 146 kts 302°
2026-05-08 23:12 62.01460 -7.05433 2601 ft 143 kts 299°
2026-05-08 23:12 62.01969 -7.07233 2509 ft 148 kts 293°
2026-05-08 23:12 62.02425 -7.09269 2425 ft 152 kts 289°
2026-05-08 23:13 62.02860 -7.11311 2374 ft 152 kts 290°
2026-05-08 23:13 62.03243 -7.13414 2304 ft 160 kts 284°
2026-05-08 23:13 62.03558 -7.15833 2231 ft 167 kts 281°
2026-05-08 23:13 62.03881 -7.18102 1980 ft 153 kts 292°
2026-05-08 23:14 62.04438 -7.20165 1669 ft 167 kts 299°
2026-05-08 23:14 62.04987 -7.22220 1046 ft 149 kts 300°
2026-05-08 23:14 62.05438 -7.24005 719 ft 129 kts 297°
2026-05-08 23:14 62.05840 -7.25623 365 ft 115 kts 297°
2026-05-08 23:15 62.06163 -7.26966 288 ft 90 kts 297°
2026-05-08 23:15 62.06476 -7.28231 777 ft 84 kts 300°
2026-05-08 23:15 62.06729 -7.29319 420 ft 87 kts 291°
2026-05-08 23:15 62.06801 -7.30611 224 ft 76 kts 280°